SCP
0 0 0 0 0 0 0 0 0 0 0 0 0 0 0 0 0 0 0 0 0 0 0 0 0 0 0 0 0 1 1 1 1 0 0 0 1 1
0 0 0 0 0 0 0 0 0 0 0 0 0 0 0 0 0 0 0 0 0 0 0 0 0 0 0 0 0 0 0 1 1 1 0 0 1 1
0 0 0 0 0 0 0 0 0 0 0 0 0 0 0 0 0 0 0 0 0 0 0 0 0 0 0 0 0 0 0 0 0 0 1 0 0 0
0 0 0 0 0 0 0 0 0 0 0 0 0 0 0 1 1 0 0 0 0 0 0 0 0 0 0 0 0 0 0 0 0 0 0 0 0 0
0 0 0 0 0 0 0 0 0 0 0 0 0 0 0 1 1 1 0 1 1 1 0 0 0 0 0 0 0 0 0 0 0 0 0 0 0 0
0 0 0 0 0 0 0 0 0 0 0 0 0 0 0 0 1 0 0 1 1 1 0 0 0 0 0 0 0 0 0 0 0 0 0 0 0 0
0 0 0 0 0 0 0 0 0 0 0 0 0 0 0 0 0 0 0 1 1 0 0 0 0 0 0 0 0 0 0 0 0 0 0 0 0 0
0 0 0 0 0 0 0 0 0 0 0 0 0 0 0 0 0 0 0 0 0 0 0 0 0 0 0 0 0 0 0 0 0 0 0 0 0 0
0 0 0 0 0 0 0 0 0 0 0 0 0 0 0 0 0 0 0 0 0 0 0 0 0 0 0 0 0 0 0 0 0 0 0 0 0 0
0 0 0 0 0 0 0 0 0 0 0 0 0 0 0 0 0 0 0 0 0 0 0 0 0 0 0 0 0 0 0 0 0 0 0 0 0 0
0 0 0 0 0 0 0 0 0 0 0 0 0 0 0 0 0 0 0 0 0 0 0 0 0 0 0 0 0 0 0 0 0 0 0 0 0 0
0 0 0 0 0 0 0 0 0 0 0 0 0 0 0 0 0 0 0 0 0 0 0 0 0 0 0 0 0 0 0 0 0 0 0 0 0 0
0 0 0 0 0 0 0 0 0 0 0 0 0 0 0 0 0 0 0 0 0 0 0 0 0 0 0 0 0 0 0 0 0 0 0 0 0 0
0 0 0 0 0 0 0 0 0 0 0 0 0 0 0 0 0 0 0 0 0 0 0 0 0 0 0 0 0 0 0 0 0 0 0 0 0 0
0 0 0 0 0 0 0 0 0 0 0 0 0 0 0 0 0 0 0 0 0 0 0 0 0 0 0 0 0 0 0 0 0 0 0 0 0 0
0 0 0 0 0 0 0 0 0 0 0 0 0 0 0 0 0 0 0 0 0 0 0 0 0 0 0 0 0 0 0 0 0 0 0 0 0 0
0 0 0 0 0 0 0 0 0 0 0 0 0 0 0 0 0 0 0 0 0 0 0 0 0 0 0 0 0 0 0 0 0 0 0 0 0 0
0 0 0 0 0 0 0 0 0 0 0 0 0 0 0 0 0 0 0 0 0 0 0 0 0 0 0 0 0 0 0 0 0 0 0 0 0 0
0 0 0 0 0 0 0 0 0 0 0 0 0 0 0 0 0 0 0 0 0 0 0 0 0 0 0 0 0 0 0 0 0 0 0 0 0 0
0 0 0 0 0 0 0 0 0 0 0 0 0 0 0 0 0 0 0 0 0 0 0 0 0 0 0 0 0 0 0 0 0 0 0 0 0 0
0 0 0 0 0 0 0 0 0 0 0 0 0 0 0 0 0 0 0 0 0 0 0 0 0 0 0 0 0 0 0 0 0 0 0 0 0 0
0 0 0 0 0 0 0 0 0 0 0 0 0 0 0 0 0 0 0 0 0 0 0 0 0 0 0 0 0 0 0 0 0 0 0 0 0 0
0 0 0 0 0 0 0 0 0 0 0 0 0 0 0 0 0 0 0 0 0 0 0 0 0 0 0 0 0 0 0 0 0 0 0 0 0 0
Wind_Speed
3 3 3 2 2 2 2 3 4 5 4 3 2 1 2 2 3 3 3 6 7 8 8 9 8 7 7 7 8 8 8 8 9 10 10 11 12 13
2 3 3 2 2 2 2 2 3 4 5 2 2 2 2 3 4 3 3 6 6 7 7 7 7 6 6 6 7 7 7 8 8 9 10 11 12 13
3 3 3 2 2 2 2 2 2 3 5 4 2 2 2 3 3 3 3 3 4 6 7 6 6 6 6 6 7 7 8 8 8 9 10 11 12 13
3 3 3 2 3 2 2 2 2 3 4 5 3 2 3 3 3 3 3 3 3 6 7 6 6 6 7 7 7 7 7 8 8 9 10 11 12 13
3 3 3 3 3 3 3 3 2 3 3 4 4 2 2 2 3 3 3 3 3 4 5 5 6 6 7 7 7 7 7 8 8 9 10 11 11 13
3 3 4 3 4 3 3 3 3 3 3 3 3 2 2 2 2 2 3 2 3 3 4 4 5 5 6 7 7 6 7 8 9 9 9 10 11 12
3 4 4 4 5 4 3 3 3 3 3 3 3 3 3 2 2 2 3 3 3 2 2 3 3 2 3 5 6 6 7 8 9 9 10 10 11 11
4 4 4 4 5 5 5 5 4 4 4 3 3 4 4 3 3 2 2 3 3 1 3 4 2 3 3 3 6 8 8 8 8 9 9 10 10 11
3 4 3 3 4 3 4 4 4 5 5 4 5 5 4 4 3 3 3 3 4 3 3 4 2 4 3 4 8 8 8 8 9 9 10 11 11 11
3 3 3 3 3 3 2 3 3 3 4 3 4 4 4 3 3 3 4 3 3 2 2 3 3 3 5 4 6 7 8 9 10 10 11 11 12 12
3 3 3 3 5 4 2 3 3 3 4 4 3 3 4 5 3 1 2 2 3 3 1 2 2 4 4 4 4 6 8 10 11 11 11 12 12 12
2 3 4 4 5 4 2 2 3 4 3 2 2 3 2 2 3 2 2 2 2 3 1 1 2 3 4 3 3 3 4 8 11 12 12 13 13 7
2 2 3 5 6 5 4 3 4 3 2 2 1 2 1 1 1 1 1 2 3 4 2 2 2 2 3 5 4 4 4 4 5 7 10 12 13 10
2 2 3 6 6 5 4 3 4 3 1 1 1 1 2 2 2 2 2 2 3 4 4 3 3 3 4 6 6 4 4 4 5 6 5 10 11 12
2 4 4 5 4 3 4 4 3 1 0 1 2 2 2 2 2 2 2 2 3 3 3 3 3 4 4 6 6 6 6 5 4 4 5 6 6 6
2 3 4 4 3 3 3 3 1 1 1 1 2 2 2 1 1 1 2 2 2 3 3 3 4 4 5 6 6 7 6 5 5 5 7 7 6 6
1 0 1 1 1 2 2 2 1 1 1 1 1 2 2 2 2 2 2 2 2 4 4 3 2 3 5 6 6 7 6 6 6 6 6 8 8 6
2 1 1 2 2 2 2 2 1 1 1 1 1 2 2 2 2 2 2 2 3 3 4 4 4 4 4 4 6 6 5 6 6 6 6 8 10 7
2 2 2 2 2 2 2 1 1 1 1 1 1 2 2 2 2 2 2 3 3 3 3 3 3 3 5 7 5 4 5 6 7 7 6 7 9 9
2 2 3 2 2 2 2 1 1 1 1 1 1 2 2 2 2 2 3 3 3 4 4 3 3 3 4 6 7 7 8 8 7 8 8 7 8 11
2 2 2 2 2 2 2 1 1 1 1 1 2 2 2 2 2 3 3 5 4 3 4 5 5 7 5 4 5 7 6 8 9 8 8 8 8 8
3 3 2 2 2 2 2 2 1 1 1 1 2 2 2 2 2 3 3 3 3 4 5 5 5 5 3 4 7 8 10 9 8 11 12 11 8 7
3 3 3 2 2 2 2 2 2 2 2 2 2 2 2 2 2 3 3 3 3 4 5 5 5 4 4 5 6 7 9 10 8 7 7 10 12 15
Wind_Direction
264 263 257 259 258 257 248 240 245 262 262 239 239 278 292 286 301 282 283 297 295 289 285 285 286 287 289 289 285 283 283 283 279 275 272 269 266 263
265 262 258 257 263 259 250 253 246 249 264 264 258 274 280 299 306 291 284 308 299 299 297 295 293 294 296 299 298 292 288 284 283 282 279 276 274 271
279 272 270 266 263 266 262 252 254 244 259 273 266 276 276 285 295 284 281 278 288 304 302 302 300 298 297 296 297 296 294 290 286 284 282 281 280 277
283 281 282 283 273 268 263 258 256 250 249 268 274 276 272 273 273 278 292 298 288 300 300 298 297 296 298 299 298 297 296 294 291 289 286 284 284 283
274 272 270 267 270 267 262 260 261 266 255 260 270 266 265 277 283 284 287 283 296 297 294 292 293 300 305 304 305 303 299 296 294 291 291 289 287 284
269 266 263 253 256 256 260 260 259 259 259 262 269 264 258 269 272 281 296 294 301 306 302 303 306 311 311 310 311 309 305 303 300 296 293 291 290 287
275 270 263 257 254 254 260 257 257 257 260 260 266 268 259 271 274 273 284 298 298 302 299 293 292 290 297 302 305 307 308 307 306 302 297 295 293 288
276 274 267 263 262 267 271 270 262 256 260 260 263 265 264 259 263 270 275 295 295 300 307 300 293 292 293 285 302 310 311 308 308 308 306 301 295 292
278 281 281 276 272 259 274 285 283 278 270 256 256 261 264 256 255 264 269 273 276 284 296 287 291 286 289 298 304 310 314 317 316 313 309 307 303 298
268 268 274 281 276 271 267 277 278 284 284 264 252 259 267 265 246 257 262 277 279 284 279 274 288 287 302 293 296 307 315 317 318 316 314 311 307 301
269 268 270 271 281 288 283 279 285 291 299 290 280 284 296 303 293 263 267 274 287 290 280 264 287 304 295 283 283 300 309 312 315 315 313 312 309 305
279 283 280 280 288 291 276 267 279 284 288 297 308 318 317 324 322 267 242 254 281 283 264 273 289 324 307 280 280 291 297 303 308 308 308 308 308 303
270 283 289 295 293 294 285 265 271 286 286 286 299 311 316 312 309 295 262 240 250 259 262 286 279 282 274 293 294 285 285 295 301 298 300 303 303 301
261 274 287 302 301 299 293 287 293 301 295 296 300 299 301 300 305 308 298 278 259 257 262 253 259 266 279 288 287 288 289 286 287 289 289 298 298 295
259 274 290 304 311 311 308 311 314 321 308 292 285 289 291 285 293 304 302 298 295 283 276 262 247 258 264 270 278 282 294 291 279 282 291 293 290 290
271 282 297 307 317 315 314 320 328 296 284 273 289 289 291 293 295 295 300 313 318 312 300 278 263 256 266 268 268 275 278 275 281 288 291 290 286 278
266 300 328 330 322 326 328 327 330 333 321 313 295 302 304 309 309 311 301 307 297 299 310 314 297 274 262 263 268 267 275 279 278 288 294 293 289 279
233 247 259 267 273 284 296 305 312 303 297 295 296 296 301 305 306 310 306 297 294 294 298 307 322 325 318 286 247 257 270 279 288 291 286 287 290 287
229 239 248 252 258 268 272 276 288 293 293 293 296 295 294 297 296 298 302 300 296 294 295 299 309 314 313 308 298 256 273 289 293 291 283 279 283 289
234 242 249 252 253 258 261 265 275 292 299 297 295 292 289 290 292 285 282 281 290 296 301 298 289 281 281 287 291 291 283 278 282 287 290 286 279 281
241 246 249 249 250 249 250 250 251 260 274 282 280 279 279 282 287 287 284 288 294 293 294 294 285 297 289 285 286 287 289 284 279 279 287 291 293 290
240 244 248 243 239 241 242 240 245 249 255 262 268 275 280 278 280 286 290 294 295 292 291 292 295 300 293 283 286 291 299 303 297 290 280 271 273 277
233 238 241 240 237 235 232 234 238 245 247 250 260 269 274 279 283 285 290 291 293 296 301 302 304 299 291 283 286 291 296 303 308 310 301 294 282 274